Regional Weather Roundup
Issued by NWS

Home | Current Version | Previous Version | Text Only | Print | Product List | Glossary Off
Versions: 1 2 3 4 5 6 7 8 9 10 11 12 13 14 15 16 17 18 19 20 21 22 23 24 25 26 27 28 29 30 31 32 33 34 35 36 37 38 39 40 41 42 43 44 45 46 47 48 49 50

000
ASUS45 KBOU 200907
RWRCO

WEATHER ROUNDUP FOR COLORADO
NATIONAL WEATHER SERVICE DENVER/BOULDER CO
300 AM MDT MON OCT 20 2014

NOTE: "FAIR" INDICATES FEW OR NO CLOUDS BELOW 12000 FEET WITH NO
SIGNIFICANT WEATHER AND/OR OBSTRUCTIONS TO VISIBILITY.

COZ001>005-013-030-031-201000-
...NORTHWEST COLORADO...

CITY           SKY/WX    TMP DP  RH WIND       PRES   REMARKS
CRAIG          CLEAR     31  27  85 CALM      30.19F
HAYDEN         CLEAR     41  28  60 E10       30.20S
MEEKER         CLEAR     40  33  76 CALM      30.20S
MOUNT WERNER   NOT AVBL
STEAMBOAT SPGS CLEAR     39  29  68 CALM      30.22S
WALDEN         PTCLDY    30  25  80 SE5       30.28F WCI  25
$$

COZ006>008-011-201000-
...WEST CENTRAL VALLEYS...

CITY           SKY/WX    TMP DP  RH WIND       PRES   REMARKS
GRAND JUNCTION CLEAR     51  34  52 CALM      30.10F
MONTROSE       CLEAR     47  38  71 S8        30.18F
EAGLE          CLEAR     39  36  87 CALM      30.27R
RIFLE          CLEAR     42  35  76 SE3       30.17R
DELTA          CLEAR     49  39  68 CALM      30.16R
NUCLA          CLEAR     46  36  66 E8        30.21S
$$

COZ017>023-064>068-201000-
...SOUTHWEST COLORADO...

CITY           SKY/WX    TMP DP  RH WIND       PRES   REMARKS
DURANGO        CLEAR     41  40  96 NE3       30.22F
CORTEZ         CLEAR     42  41  96 N3        30.19R
PAGOSA SPRINGS CLEAR     40  40 100 CALM      30.28S
TELLURIDE      CLEAR     40  36  84 SE5       30.34R
WOLF CREEK PAS CLEAR     34  32  93 E5        30.47S WCI  30
$$

COZ009-010-012-014-032>034-037-058>063-201000-
...CENTRAL COLORADO...

CITY           SKY/WX    TMP DP  RH WIND       PRES   REMARKS
ASPEN          CLEAR    N/A N/A N/A SW7       30.27R
BUENA VISTA    CLEAR     38  33  80 W8        30.32R
COPPER MTN     CLEAR     39  27  60 S22       30.47S
BERTHOUD PASS  FAIR      32  28  86 MISG      30.51F
COTTONWOOD PAS CLEAR     45  32  61 W7        30.39S
GUNNISON       CLEAR     37  28  70 E5        30.32S
KREMMLING      CLEAR     32  28  86 CALM        N/A
LEADVILLE      CLEAR     32  27  81 CALM      30.39R
MONARCH PASS   CLEAR     36  30  80 CALM      30.58R
SALIDA         CLEAR     46  37  70 NW5       30.37S
SUNLIGHT       CLEAR     41  32  70 CALM      30.43S
WILKERSON PASS NOT AVBL
$$

COZ069>075-201000-
...SAN LUIS VALLEY/SANGRE DE CRISTO MOUNTAINS...

CITY           SKY/WX    TMP DP  RH WIND       PRES   REMARKS
ALAMOSA        CLEAR     36  31  82 W3        30.28R
LA VETA PASS   CLEAR     41  30  65 NE8       30.39S
SAGUACHE       CLEAR     41  36  81 NW14      30.30S
$$

COZ035-036-038>040-201000-
...NORTHERN COLORADO FRONT RANGE...

CITY           SKY/WX    TMP DP  RH WIND       PRES   REMARKS
DENVER INTL AP PTCLDY    48  36  63 SW8       30.16F
DMNS CITY PARK   N/A     45  36  71 SE7       30.15F
AURORA         PTCLDY    50  37  61 S10       30.17F
FRONT RANGE AP CLEAR     50  37  62 SW7       30.17F
ERIE MUNI ARPT CLEAR     40  36  87 SW3       30.15F
BOULDER MUN AP CLEAR     48  34  57 CALM      30.15F
CENTENNIAL     PTCLDY    48  36  63 SE8       30.18F
BROOMFIELD     CLEAR     50  32  50 W6        30.17F
FORT COLLINS   CLEAR     48  36  61 N7        30.16F
LONGMONT       CLEAR     42  34  73 CALM      30.17F
$$

COZ041-046-047-076>085-087-088-201000-
...PIKES PEAK/PALMER DIVIDE AND SOUTHERN FOOTHILLS...

CITY           SKY/WX    TMP DP  RH WIND       PRES   REMARKS
COLO. SPRINGS  CLEAR     44  36  73 N6        30.23S
A. F. ACADEMY  CLEAR     38  32  81 N10       30.24S
ELLICOTT       NOT AVBL
FALCON         CLEAR     40  34  78 CALM      30.26S
FORT CARSON    CLEAR     45  35  67 NW7       30.21R
LIMON          CLEAR     38  35  89 N5        30.19S
MONUMENT HILL  CLEAR     41  34  75 SW7       30.24S
TRINIDAD       CLEAR     48  37  65 W15       30.18S
$$

COZ042>045-048>051-090-091-201000-
...NORTHEAST COLORADO...

CITY           SKY/WX    TMP DP  RH WIND       PRES   REMARKS
GREELEY ARPT   CLEAR     41  32  70 W7        30.16S
AKRON          CLEAR     50  40  68 SW9       30.15S
BURLINGTON     CLEAR     40  36  86 W6        30.13S
WRAY           CLEAR     41  37  84 W6        30.12F
STERLING       CLEAR     41  37  87 CALM      30.13S
HOLYOKE        CLEAR     41  36  81 W6        30.13S
FORT MORGAN    CLEAR     43  35  72 W7        30.15F
$$

COZ086-089-092>099-201000-
...SOUTHEAST COLORADO...

CITY           SKY/WX    TMP DP  RH WIND       PRES   REMARKS
PUEBLO         CLEAR     45  37  73 N7        30.15S
LA JUNTA       CLEAR     47  40  76 NW3       30.13S
LAMAR          CLEAR     43  40  89 SW3       30.10R
SPRINGFIELD      N/A     45  41  86 W6        30.12R
$$



USA.gov is the U.S. government's official web portal to all federal, state and local government web resources and services.